Regional Weather Roundup
Issued by NWS Jackson, KY

Home | Current Version | Previous Version | Text Only | Print | Product List | Glossary On
Versions: 1 2 3 4 5 6 7 8 9 10 11 12 13 14 15 16 17 18 19 20 21 22 23 24 25 26 27 28 29 30 31 32 33 34 35 36 37 38 39 40 41 42 43 44 45 46 47 48 49 50
000
ASUS43 KJKL 232319
RWRJKL

EAST KENTUCKY HOURLY WEATHER ROUNDUP
NATIONAL WEATHER SERVICE JACKSON KY
700 PM EDT WED JUL 23 2014

NOTE: "FAIR" INDICATES FEW OR NO CLOUDS BELOW 12,000 FEET WITH
NO SIGNIFICANT WEATHER AND/OR OBSTRUCTIONS TO VISIBILITY.

* THESE REPORTS ARE NOT UNDER NWS QUALITY CONTROL AND MAY NOT
  REPORT WEATHER SUCH AS PRECIPITATION AND FOG.

KYZ079-080-083-085-087-088-110-112-115-119-120-240000
...EASTERN KENTUCKY...

CITY           SKY/WX    TMP DP  RH WIND       PRES   REMARKS
JACKSON        LGT RAIN  71  67  87 CALM      29.97F
LONDON         MOSUNNY   79  68  69 S3        29.99S
SOMERSET*      PTSUNNY   82  70  65 CALM      29.97S
MONTICELLO*    MOSUNNY   83  74  74 SE5       29.97F
WILLIAMSBURG*  SUNNY     77  72  83 SE6       29.99F
MIDDLESBORO*   PTSUNNY   79  70  72 W3        29.99F
HARLAN APT*    CLOUDY    70  68  94 MISG      30.01S
HAZARD APT*    CLEAR     79  68  69 SW7       29.98F
BLACK MTN*       N/A     66  63  88 S3          N/A
PIKEVILLE APT* MOSUNNY   73  68  83 CALM      29.98F THUNDER
BIG SANDY*     MOCLDY    77  72  84 CALM      29.96F
MOREHEAD APT*  MOCLDY    79  70  73 N7        29.98F
ASHLAND*       SUNNY     81  66  61 NW7       29.92F
$$

KYZ035-036-041-042-044-050-067-078-099-240000
...CENTRAL KENTUCKY...

CITY           SKY/WX    TMP DP  RH WIND       PRES   REMARKS
MT STERLING*   PTSUNNY   79  73  83 NE5       29.98F
FLEMING/MASON* PTSUNNY   81  66  59 NE9       29.97F
DANVILLE*      CLOUDY    72  70  94 SW5       29.98F
RICHMOND*      CLOUDY    75  68  78 CALM      29.98R
LEXINGTON      PTSUNNY   85  70  60 NW8       29.96F
FRANKFORT      MOSUNNY   84  66  54 NW8       29.95F
$$

KYZ091>093-OHZ055-061-077-WVZ005-015-034-035-042-240000
...SOUTHERN OHIO/WEST VIRGINIA...

CITY           SKY/WX    TMP DP  RH WIND       PRES   REMARKS
COVINGTON      PTSUNNY   81  70  69 NE6       29.97F
COLUMBUS       CLOUDY    77  67  71 N13G18    29.98R
DAYTON         LGT RAIN  70  68  94 N15G21    30.02S FOG
WILMINGTON     PTSUNNY   77  66  68 N7        29.99S
HUNTINGTON     MOSUNNY   84  67  56 NW9G17    29.93F
CHARLESTON     PTSUNNY   82  71  69 E9        29.93S
PINEVILLE*     CLOUDY    79  76  91 MISG      30.04F
BECKLEY        CLOUDY    77  69  76 SW7       30.03F
BLUEFIELD      CLOUDY    77  66  68 W8        30.07F
$$

VAZ002-007-008-TNZ017-027-036-066-071-240000
...SOUTHWEST VIRGINIA/EAST TENNESSEE...

CITY           SKY/WX    TMP DP  RH WIND       PRES   REMARKS
WISE*          CLOUDY    72  61  68 S3        30.05F
JONESVILLE*    CLOUDY    73  72  94 CALM      30.02F
ABINGDON*      PTSUNNY   77  69  76 CALM      30.03F
BRISTOL        CLOUDY    76  68  76 S6        30.01F
KNOXVILLE      PTSUNNY   78  68  71 E7        29.99S
OAK RIDGE      MOSUNNY   75  71  87 S3        30.01S
CROSSVILLE     MOSUNNY   78  69  73 CALM      30.03F
NASHVILLE      PTSUNNY   89  70  53 W7        29.94F HX  94
$$

...KEY TO REMARKS...
VSB - VISIBILITY IN MILES
WCI - WIND CHILL INDEX
HX  - HEAT INDEX

$$


USA.gov is the U.S. government's official web portal to all federal, state and local government web resources and services.